Home > Time Zones > World Clock > Weather > Spain > Lugo > Past weeks

Flag for Spain Weather past 2 weeks in Lugo, Galicia, Spain

Now
45 °F

Passing clouds.


Feels Like: 40 °F
Forecast: 29 / 60 °F
Wind: 8 mph from Northeast

Location: Santiago / Labacolla

Current Time: Mar 4, 2015 at 8:18:43 PM

Latest Report: Mar 4, 2015 at 8:00 PM


Visibility: N/A

Pressure: 30.66 "Hg

Humidity: 66%

Dew point: 34 °F

Location of LugoLocation

Historic Weather in Lugo — Graph

°F

Lugo temperature yesterday

Maximum temperature yesterday: 50 °F (at 12:00 AM)
Minimum temperature yesterday: 43 °F (at 9:30 PM)
Average temperature yesterday: 48 °F

Past Weeks' High & Low Weather Summary

 TemperatureHumidityPressure
High55 °F (Feb 28, 3:00 PM)100% (Feb 19, 4:30 AM)30.69 "Hg (Feb 19, 4:30 AM)
Low30 °F (Feb 19, 4:30 AM)41% (Feb 18, 3:30 PM)29.92 "Hg (Feb 20, 6:30 PM)
Average47 °F89%30.31 "Hg
* Reported Feb 17 7:00 PM — Mar 4 7:00 PM, Lugo, Weather by CustomWeather, © 2015

Note: Actual official high and low records may vary slightly from our data, if they occured in-between our weather recording intervals... More about our weather records

Advertising

Lugo weather history for previous 24 hours

 ConditionsComfort  
Time TempWeatherWind HumidityBarometerVisibility
7:00 PM
Wed, Mar 4
46 °FPassing clouds.12 mph57%30.63 "HgN/A
6:30 PM48 °FPassing clouds.13 mph54%30.63 "HgN/A
6:00 PM50 °FPassing clouds.9 mph58%30.63 "HgN/A
5:30 PM52 °FPassing clouds.12 mph50%30.60 "HgN/A
5:00 PM52 °FPassing clouds.12 mph54%30.60 "HgN/A
4:30 PM52 °FPassing clouds.13 mph58%30.60 "HgN/A
4:00 PM52 °FPassing clouds.13 mph58%30.60 "HgN/A
3:30 PM52 °FPassing clouds.13 mph54%30.60 "HgN/A
3:00 PM52 °FPassing clouds.12 mph54%30.60 "HgN/A
2:30 PM50 °FPassing clouds.15 mph58%30.60 "HgN/A
2:00 PM50 °FPassing clouds.13 mph62%30.60 "HgN/A
1:30 PM50 °FScattered clouds.14 mph62%30.60 "HgN/A
1:00 PM48 °FScattered clouds.13 mph66%30.63 "HgN/A
12:30 PM50 °FScattered clouds.14 mph58%30.63 "HgN/A
12:00 PM48 °FScattered clouds.10 mph71%30.63 "HgN/A
11:30 AM46 °FScattered clouds.15 mph71%30.63 "HgN/A
11:00 AM45 °FScattered clouds.10 mph81%30.60 "HgN/A
10:30 AM43 °FPassing clouds.13 mph81%30.60 "HgN/A
10:00 AM43 °FPassing clouds.14 mph81%30.60 "HgN/A
9:30 AM41 °FPassing clouds.13 mph87%30.60 "HgN/A
9:00 AM41 °FPassing clouds.12 mph81%30.57 "HgN/A
8:30 AM39 °FPassing clouds.3 mph87%30.57 "HgN/A
8:00 AM39 °FPassing clouds.5 mph87%30.57 "HgN/A
7:30 AM41 °FPassing clouds.7 mph81%30.57 "HgN/A
7:00 AM39 °FPassing clouds.6 mph93%30.57 "HgN/A
6:30 AM41 °FPassing clouds.8 mph87%30.57 "HgN/A
6:00 AM41 °FPassing clouds.13 mph87%30.54 "HgN/A
5:30 AM41 °FPassing clouds.12 mph87%30.54 "HgN/A
5:00 AM43 °FPassing clouds.9 mph87%30.54 "HgN/A
4:30 AM43 °FPassing clouds.9 mph87%30.54 "HgN/A
4:00 AM43 °FPartly cloudy.13 mph93%30.54 "HgN/A
3:30 AM43 °FPassing clouds.13 mph93%30.54 "HgN/A
3:00 AM43 °FPassing clouds.12 mph93%30.54 "HgN/A
2:30 AM43 °FPassing clouds.10 mph93%30.51 "HgN/A
2:00 AM43 °FPartly cloudy.9 mph93%30.51 "HgN/A
1:30 AM43 °FPassing clouds.6 mph93%30.51 "HgN/A
1:00 AM43 °FPassing clouds.6 mph93%30.48 "HgN/A
12:30 AM43 °FPassing clouds.8 mph93%30.48 "HgN/A
12:00 AM43 °FPartly cloudy.6 mph93%30.45 "HgN/A
11:30 PM
Tue, Mar 3
43 °FPartly cloudy.6 mph93%30.45 "HgN/A
11:00 PM43 °FPartly cloudy.6 mph100%30.45 "HgN/A
10:30 PM45 °FPartly cloudy.6 mph93%30.45 "Hg5 mi
10:00 PM45 °FLight rain. Fog.9 mph93%30.42 "Hg3 mi
9:30 PM43 °FLight rain. Fog.7 mph100%30.42 "Hg2 mi
8:30 PM45 °FPartly cloudy.12 mph93%30.39 "Hg3 mi
8:00 PM45 °FPartly cloudy.12 mph100%30.39 "Hg1 mi
Weather by CustomWeather, © 2015

See weather overviewHow to use our weather pages